STARLINK-33811, 63504

Orbit data source: Space-Track

STARLINK-33811, 63504 is a payload satellite owned by SpaceX/Seattle (US) in LEO that was launched on Mon, 07 Apr 2025 UTC via an FALCON 9 launch vehicle from the Air Force Western Test Range (AFWTR). Payload-class satellites include a variety of spacecraft equipped with specific instruments for various scientific and technological missions. These include communications satellites like Starlink; space stations such as the ISS; scientific satellites like the Hubble; Earth observation satellites from companies like Planet Labs, Umbra, and HawkEye 360; GPS; miniature CubeSats for education and research; and military/defense satellites.

Loading next visibility...
Identifier
63504, 2025-071M
Orbit
LEO
Country
Flag of USUS
Related business
Manufacturer
SpaceX/Seattle
Mission
Operational Commercial Communications
Bus & Motor
STARLINK V2MO, Unknown motor
Mass
575 kg wet, ~530 kg dry
Launch date (UTC)
2025-04-07 (5 months ago)
Launch vehicle
FALCON 9
Launch site
Air Force Western Test Range (AFWTR)
Object type
Payload
Rocket body
Debris
Shape & HBR
Box + 1 Pan, 14.5 m
Radar Cross Section
41.120 m², Large (>1 m²)

Expand to show TLE details & history
Last TLE update: 21 hours ago

TLE from 21 hours ago
0 STARLINK-33811
1 63504U 25071M   25257.33000310  .00016198  00000-0  55777-3 0  9993
2 63504  53.1579 239.4364 0001185 118.0052 242.1069 15.30204246 25708
Epoch: 2025-09-14T07:55Z
TLE epoch observation values (Epoch: 2025-09-14T07:55:12.267Z)
Latitude
-0.00002°
Longitude
127.08471°
Altitude
476.482 km
Speed
7.629 km/s
True Right ascension
15h 57m 44s
True Declination
0° 00' 00"
Sunlit
Object was in daylight at epoch
Visualization orbit readout
Latitude
Unknown
Longitude
Unknown
Altitude
Unknown
Speed
Unknown
Apparent Right ascension
Unknown
Apparent Declination
Unknown
Sunlit
N/A
Visualization observer readout
Local Sidereal Time
22:00:52
Azimuth
Unknown
Elevation
Unknown
Doppler factor
Unknown
Orbital elements
Apogee altitude
476.271 km
Perigee altitude
474.647 km
Semi-major axis
6,853.596 km
Eccentricity
0.00012
Inclination
53.1579°
RAAN
239.4364°
Arg. of periapsis
118.0052°
True anomaly
242.0949°
Mean anomaly
242.1069°
Eccentric anomaly
242.1009°
Mean motion
3.8253 °/min
Orbital period
94.11 mins
BSTAR
0.00055777
Loading maneuver chart data...
Computing Atmospheric mass density...
Loading historical data...
Loading historical data...
Loading historical data...
Loading historical data...
Loading historical data...
Loading historical data...
Loading historical data...

Documentation

Showing up to 5 results
|